This is the latest recevied weather packets stored in our database for station/object SR2GKG-13. If no packets are shown the sender has not sent any weather packets the latest 10 day(s).
| Time | Temp. | Humidity | Pressure | Rain* | Wind** | Luminosity | Snow |
|---|---|---|---|---|---|---|---|
| 1777867756 | 13.89° C | 54% | 999 hPa | - | - | - | - |
| 1777866856 | 13.33° C | 54% | 999 hPa | - | - | - | - |
| 1777865956 | 13.33° C | 54% | 999.1 hPa | - | - | - | - |
| 1777865056 | 13.33° C | 54% | 999.1 hPa | - | - | - | - |
| 1777864156 | 13.33° C | 53% | 999.1 hPa | - | - | - | - |
| 1777863256 | 13.89° C | 52% | 999.1 hPa | - | - | - | - |
| 1777862355 | 13.89° C | 51% | 999.2 hPa | - | - | - | - |
| 1777861455 | 14.44° C | 50% | 999.1 hPa | - | - | - | - |
| 1777860555 | 14.44° C | 50% | 999.1 hPa | - | - | - | - |
| 1777859655 | 14.44° C | 49% | 999.1 hPa | - | - | - | - |
| 1777858755 | 14.44° C | 49% | 999.1 hPa | - | - | - | - |
| 1777857855 | 14.44° C | 48% | 999.3 hPa | - | - | - | - |
| 1777856955 | 14.44° C | 47% | 999.3 hPa | - | - | - | - |
| 1777856055 | 15° C | 46% | 999.1 hPa | - | - | - | - |
| 1777855155 | 15.56° C | 45% | 999.1 hPa | - | - | - | - |
| 1777854255 | 15.56° C | 45% | 999.1 hPa | - | - | - | - |
| 1777853355 | 15.56° C | 44% | 999.1 hPa | - | - | - | - |
| 1777852454 | 16.11° C | 43% | 999.1 hPa | - | - | - | - |
| 1777851554 | 16.11° C | 42% | 999.2 hPa | - | - | - | - |
| 1777850654 | 16.11° C | 42% | 999.3 hPa | - | - | - | - |
| 1777849754 | 16.11° C | 41% | 999.4 hPa | - | - | - | - |
| 1777848854 | 16.67° C | 39% | 999.4 hPa | - | - | - | - |
| 1777847954 | 16.67° C | 39% | 999.3 hPa | - | - | - | - |
| 1777847054 | 17.22° C | 37% | 999.3 hPa | - | - | - | - |
| 1777846154 | 17.22° C | 38% | 999.4 hPa | - | - | - | - |
* Rain since midnight (hover to see other rain measurements)
** Current wind speed in m/s (hover to see current wind gust speed)